星链-5491 (STARLINK-5491 )

导读

STARLINK-5491是美国于2023年1月26日发射的星链卫星,属于SpaceX公司星链星座计划的组成部分。星链旨在构建全球卫星互联网星座,为全球偏远地区、海洋空域等提供高速低延迟互联网接入服务,该卫星入轨后将参与星座组网,助力实现全球覆盖的通信网络布局。

Basic Information
目录编号:
55332
目录名称:
STARLINK-5491
国际标识:
2023-013B
轨道中心:
EARTH
卫星名称:
星链-5491
卫星全名:
星链-5491 (STARLINK-5491 )
卫星状态:
在轨 (已飞行1317 天)
发射日期:
2023-01-26 UTC
国别 :
美国 (US)
星等 :
--
Orbit Information
数据来源 国际轨道数据
星历时间: 2026-09-03T16:54:03+0800
1天前
查看轨道信息
半长轴: 6861.198km
偏心率: 0.0001329
轨道倾角: 43.005°
近地点辐角 270.113°
升交点赤经 5.562°
平近点角 89.957°
近地点: 482.149km
远地点: 483.973km
周期: 94.267分钟
每日圈数: 15.275763
Detailed Information
固有亮度:
5
最大亮度:
2.5
卫星平台:
Starlink v1.5
覆盖范围:
全球
运营商:
太空探索技术公司
运营商所在国:
美国
制造商(研发单位):
太空探索技术公司
制造商所在国:
美国
使用方式:
暂无
Satellite Introduction
星链(Starlink)计划是由太空探索技术公司(SpaceX)提出的一个巨型低轨卫星互联网星座项目,计划在2019年至2024年间在太空搭建由约1.2万颗卫星组成的“星链”网络,其中1584颗将部署在地球上空550千米处的近地轨道,并从2020年开始工作。该卫星仍在工作。
2D Orbit Map
3D Orbit Map
Orbit Altitude Analysis Chart
Orbit Inclination Analysis Chart
Orbit Comprehensive Analysis Chart
View Comprehensive Chart
Conjunction Data List
Event ID Objects TCA Miss Dist (km) Collision Risk Probability Collision Risk Index (CRI) Action
CDM_260905-142502-077405-533222
2026-09-05T
14:25:10+0000
0.292 km
中距离
3.575242E-4 高风险 0.86
CDM_260904-154503-130505-533222
2026-09-04T
15:45:12+0000
2.700 km
极远距离
1.47003E-6 低风险 0.38
CDM_260904-155605-533206-434421
2026-09-04T
15:56:36+0000
2.907 km
极远距离
8.900095E-7 极低风险 0.34